FW1465 Weather Reports


Display with metric or nautical units.
time (UTC)temp
F
wind
direction
speed
MPH
gust
MPH
rain 1hr
in
rain 24hr
in
rain mn
in
humidity
%
barometer
mb
20220126120718 29 0.0 0.0 0.00 0.00 0.00 41 1027.7
20220126115717 29 0.0 1.0 0.00 0.00 0.00 40 1027.7
20220126114717 29 0.0 1.0 0.00 0.00 0.00 40 1027.8
20220126113717 30 0.0 0.0 0.00 0.00 0.00 40 1027.7
20220126112717 30 0.0 0.0 0.00 0.00 0.00 39 1027.6
20220126111717 30 0.0 0.0 0.00 0.00 0.00 39 1027.5
20220126110717 31 45 1.0 4.0 0.00 0.00 0.00 39 1027.3
20220126105717 31 0.0 0.0 0.00 0.00 0.00 39 1027.2
20220126104717 31 0.0 0.0 0.00 0.00 0.00 38 1027.1
20220126103717 31 0.0 2.0 0.00 0.00 0.00 38 1026.9
20220126102717 31 0.0 0.0 0.00 0.00 0.00 38 1026.8
20220126101717 31 0.0 2.0 0.00 0.00 0.00 38 1026.9
20220126100718 31 0.0 0.0 0.00 0.00 0.00 37 1027.1
20220126095718 31 0.0 1.0 0.00 0.00 0.00 37 1027.0
20220126094717 32 0.0 0.0 0.00 0.00 0.00 37 1026.8
20220126093717 32 67 1.0 3.0 0.00 0.00 0.00 37 1026.9
20220126092717 32 0.0 0.0 0.00 0.00 0.00 37 1026.7
20220126091717 32 0.0 0.0 0.00 0.00 0.00 37 1026.7
20220126090717 32 0.0 0.0 0.00 0.00 0.00 36 1026.7
20220126085717 32 0.0 0.0 0.00 0.00 0.00 36 1026.7
20220126084717 32 0.0 0.0 0.00 0.00 0.00 36 1026.7
20220126083717 32 0.0 4.0 0.00 0.00 0.00 36 1026.7
20220126082717 32 67 1.0 6.0 0.00 0.00 0.00 36 1026.5
20220126081717 32 0.0 0.0 0.00 0.00 0.00 36 1026.4
20220126080717 32 0.0 0.0 0.00 0.00 0.00 36 1026.5
20220126075717 33 0.0 0.0 0.00 0.00 0.00 36 1026.4
20220126074717 33 0.0 0.0 0.00 0.00 0.00 35 1026.4
20220126073717 33 67 2.0 14.0 0.00 0.00 0.00 35 1026.3
20220126072717 33 0.0 0.0 0.00 0.00 0.00 35 1026.2
20220126071717 34 0.0 0.0 0.00 0.00 0.00 35 1026.0
20220126070717 34 0.0 0.0 0.00 0.00 0.00 36 1026.0
20220126065717 34 0.0 1.0 0.00 0.00 0.00 36 1026.0
20220126064717 34 0.0 0.0 0.00 0.00 0.00 35 1026.0
20220126063717 34 0.0 0.0 0.00 0.00 0.00 35 1025.8
20220126062717 35 0.0 4.0 0.00 0.00 0.00 35 1025.9
20220126061717 35 0.0 0.0 0.00 0.00 0.00 35 1025.8
20220126060717 36 90 1.0 4.0 0.00 0.00 0.00 34 1025.8
20220126055717 36 0.0 0.0 0.00 0.00 0.00 34 1025.9
20220126054716 36 0.0 0.0 0.00 0.00 0.00 34 1025.8
20220126053717 37 45 3.0 8.0 0.00 0.00 0.00 34 1025.5
20220126052716 37 0.0 0.0 0.00 0.00 0.00 35 1025.5
20220126051716 37 0.0 3.0 0.00 0.00 0.00 34 1025.5
20220126050716 38 0.0 0.0 0.00 0.00 0.00 35 1025.1
20220126045725 38 0.0 0.0 0.00 0.00 0.00 34 1025.0
20220126045417 38 0.0 0.0 0.00 0.00 0.00 34 1025.0
20220126044416 39 0.0 0.0 0.00 0.00 0.00 33 1024.8
20220126043416 39 0.0 3.0 0.00 0.00 0.00 32 1024.7
20220126042416 40 0.0 0.0 0.00 0.00 0.00 31 1024.6
20220126041416 40 0.0 2.0 0.00 0.00 0.00 31 1024.6
20220126040416 40 0.0 1.0 0.00 0.00 0.00 32 1024.4
20220126035416 40 0.0 3.0 0.00 0.00 0.00 32 1024.1
20220126034417 41 0.0 1.0 0.00 0.00 0.00 32 1024.1
20220126033417 41 0.0 0.0 0.00 0.00 0.00 32 1024.0
20220126032416 42 22 1.0 6.0 0.00 0.00 0.00 32 1023.8
20220126031416 42 0.0 1.0 0.00 0.00 0.00 32 1023.7
20220126030416 43 0.0 0.0 0.00 0.00 0.00 33 1023.4
20220126025416 43 0.0 0.0 0.00 0.00 0.00 32 1023.3
20220126024416 44 0.0 0.0 0.00 0.00 0.00 32 1022.9
20220126023417 44 0.0 3.0 0.00 0.00 0.00 32 1022.8
20220126022416 45 0.0 0.0 0.00 0.00 0.00 32 1022.5
20220126021416 46 0.0 1.0 0.00 0.00 0.00 31 1022.4
20220126020418 46 0.0 0.0 0.00 0.00 0.00 31 1022.2
20220126015416 47 0.0 0.0 0.00 0.00 0.00 31 1022.0
20220126014417 48 90 1.0 3.0 0.00 0.00 0.00 31 1021.7
20220126013416 49 0.0 1.0 0.00 0.01 0.00 30 1021.5
20220126012416 50 0.0 2.0 0.00 0.01 0.00 32 1021.3
20220126011416 50 0.0 1.0 0.00 0.02 0.00 33 1021.0
20220126010416 50 0.0 0.0 0.00 0.02 0.00 33 1021.0
20220126005416 51 0.0 0.0 0.00 0.02 0.00 33 1020.8
20220126004416 51 0.0 0.0 0.00 0.02 0.00 34 1020.5
20220126003416 51 0.0 0.0 0.00 0.02 0.00 34 1020.4
20220126002416 52 0.0 0.0 0.00 0.02 0.00 34 1020.2
20220126001415 52 0.0 0.0 0.00 0.02 0.00 34 1020.0
20220126000418 53 0.0 0.0 0.00 0.02 0.00 35 1019.8
20220125235416 53 0.0 0.0 0.00 0.02 0.00 35 1019.6
20220125234416 54 0.0 0.0 0.00 0.02 0.00 34 1019.4
20220125233416 54 0.0 3.0 0.00 0.02 0.00 33 1019.4
20220125232416 55 247 1.0 7.0 0.00 0.02 0.00 33 1019.3
20220125231415 56 90 2.0 6.0 0.00 0.02 0.00 32 1019.0
20220125230416 56 0.0 1.0 0.00 0.02 0.00 33 1018.9
20220125225416 57 0.0 0.0 0.00 0.02 0.00 32 1018.9
20220125224416 57 67 1.0 6.0 0.00 0.02 0.00 32 1018.8
20220125223416 58 0.0 0.0 0.00 0.02 0.00 32 1018.8
20220125222416 58 0.0 0.0 0.00 0.02 0.00 31 1018.8
20220125221416 59 0.0 0.0 0.00 0.02 0.00 31 1018.6
20220125220416 59 0.0 0.0 0.00 0.02 0.00 32 1018.5
20220125215416 59 0.0 0.0 0.00 0.02 0.00 32 1018.5
20220125214416 59 45 1.0 5.0 0.00 0.02 0.00 32 1018.3
20220125213416 59 0.0 0.0 0.00 0.02 0.00 32 1018.2
20220125212416 59 90 1.0 6.0 0.00 0.02 0.00 31 1018.1
20220125211416 59 67 1.0 4.0 0.00 0.02 0.00 32 1018.1
20220125210418 59 0.0 0.0 0.00 0.02 0.00 32 1018.1
20220125205417 58 0.0 1.0 0.00 0.02 0.00 32 1018.2
20220125204416 59 22 2.0 4.0 0.00 0.02 0.00 33 1018.2
20220125203416 58 67 1.0 6.0 0.00 0.02 0.00 33 1018.2
20220125202416 58 90 2.0 6.0 0.00 0.02 0.00 34 1018.2
20220125201416 58 0.0 0.0 0.00 0.02 0.00 34 1018.1
20220125200416 58 0.0 0.0 0.00 0.02 0.00 34 1018.2
20220125195415 57 0.0 0.0 0.00 0.02 0.00 35 1018.3
20220125194417 57 0.0 0.0 0.00 0.02 0.00 35 1018.4
20220125193418 57 0.0 0.0 0.00 0.02 0.00 35 1018.4
20220125192419 57 0.0 0.0 0.00 0.02 0.00 35 1018.4
20220125191418 56 0.0 0.0 0.00 0.02 0.00 36 1018.6
20220125190420 56 112 1.0 7.0 0.00 0.02 0.00 37 1018.6
20220125185417 55 0.0 0.0 0.00 0.02 0.00 38 1018.8
20220125184417 55 0.0 0.0 0.00 0.02 0.00 38 1018.9
20220125183417 54 0.0 0.0 0.00 0.02 0.00 39 1019.0
20220125182417 54 0.0 0.0 0.00 0.02 0.00 40 1019.2
20220125181418 54 0.0 0.0 0.00 0.02 0.00 40 1019.2
20220125180417 54 0.0 0.0 0.00 0.02 0.00 41 1019.3
20220125175418 54 0.0 0.0 0.00 0.02 0.00 41 1019.4
20220125174418 53 90 2.0 6.0 0.00 0.02 0.00 41 1019.5
20220125173417 53 0.0 0.0 0.00 0.02 0.00 42 1019.6
20220125172417 52 0.0 0.0 0.00 0.02 0.00 44 1019.7
20220125171419 52 90 1.0 5.0 0.00 0.02 0.00 45 1019.8
20220125170417 51 0.0 0.0 0.00 0.02 0.00 46 1019.7
20220125165417 51 0.0 2.0 0.00 0.02 0.00 47 1019.6
20220125164418 50 67 1.0 7.0 0.00 0.02 0.00 48 1019.6
20220125163418 49 90 4.0 13.0 0.00 0.02 0.00 48 1019.5
20220125162418 49 0.0 0.0 0.00 0.02 0.00 49 1019.4
20220125161418 49 0.0 3.0 0.00 0.02 0.00 50 1019.3
20220125160418 48 0.0 0.0 0.00 0.02 0.00 49 1019.1
20220125155418 47 0.0 0.0 0.00 0.02 0.00 51 1018.8
20220125154417 46 0.0 0.0 0.00 0.02 0.00 51 1018.8
20220125153418 46 0.0 0.0 0.00 0.02 0.00 52 1018.5
20220125152417 44 0.0 0.0 0.00 0.02 0.00 53 1018.5
20220125151418 44 112 1.0 3.0 0.00 0.02 0.00 53 1018.2
20220125150420 43 67 1.0 5.0 0.00 0.02 0.00 54 1018.1
20220125145418 42 90 2.0 6.0 0.00 0.02 0.00 55 1018.1
20220125144417 42 0.0 2.0 0.00 0.02 0.00 57 1017.9
20220125143417 41 45 3.0 10.0 0.00 0.02 0.00 57 1017.7
20220125142417 41 135 1.0 5.0 0.00 0.02 0.00 57 1017.6
20220125141418 40 45 1.0 4.0 0.00 0.02 0.00 58 1017.6
20220125140417 40 67 1.0 4.0 0.00 0.02 0.00 59 1017.5
20220125135417 39 0.0 0.0 0.00 0.02 0.00 60 1017.4
20220125134419 39 0.0 0.0 0.00 0.02 0.00 61 1017.3
20220125133417 39 0.0 0.0 0.00 0.02 0.00 61 1017.1
20220125132418 39 0.0 0.0 0.00 0.02 0.00 62 1017.1
20220125131418 39 0.0 0.0 0.00 0.02 0.00 63 1016.9
20220125130417 39 67 1.0 5.0 0.00 0.02 0.00 63 1016.8
20220125125418 39 0.0 1.0 0.00 0.02 0.00 64 1016.6
20220125124420 39 0.0 1.0 0.00 0.02 0.00 65 1016.5
20220125123418 39 0.0 0.0 0.00 0.02 0.00 65 1016.2
20220125122418 40 0.0 0.0 0.00 0.02 0.00 65 1016.1